Preview of NWS' New Version of Forecast
This preview is not operational and should not be used for support decisions.

Regional Weather Roundup (RWR)

Issued by National Weather Service (NWS)

                            
000
ASCA42 TJSJ 171710
RWRPR 
PUERTO RICO/U.S. VIRGIN ISLANDS HOURLY WEATHER ROUNDUP
NATIONAL WEATHER SERVICE SAN JUAN PR
100 PM AST TUE SEP 17 2019

PRZ001>002-007>008-010-171800-
PUERTO RICO
  
CITY           SKY/WX    TMP DP  RH WIND       PRES   REMARKS
SAN JUAN LMM   PTSUNNY   91  73  55 S13G20    29.91F HX 100           
AGUADILLA      CLOUDY    86  79  79 W8        29.93F HX  99           
CEIBA          SUNNY     88  79  74 SE12G21   29.94F HX 102           
$$

VIZ001>002-171800-
U.S. VIRGIN ISLANDS
  
CITY           SKY/WX    TMP DP  RH WIND       PRES   REMARKS
CHARLOTTE AMA  MOSUNNY   90  77  66 SE15      29.93F HX 102           
CHRISTIANSTED  PTSUNNY   90  77  66 E15G22    29.93F HX 102           
$$

HOURLY WEATHER ROUNDUP FOR THE NEWS MEDIA
  
CITY           SKY/WX    TMP DP  RH WIND       PRES   REMARKS
ORLANDO        FAIR      90  63  40 MISG      29.96F HX  91           
NEW YORK       FAIR      75  44  33 N14       30.15S                  
NEWARK         FAIR      75  43  31 NE12G20   30.14F                  
CHICAGO        PTSUNNY   75  63  66 E8        30.18F                  
HARTFORD       FAIR      68  47  46 NE13      30.10S                  
BOSTON         FAIR      69  52  54 NE16      30.13S                  
DALLAS         MOSUNNY   89  68  49 SE8       30.00F HX  93           
PHILADELPHIA   FAIR      76  47  35 NE5       30.14F                  
LOS ANGELES    MOSUNNY   74  60  61 E7        29.98S                  
WASHINGTON DC  PTSUNNY   76  60  57 VRB3G16   30.13S